Regional Weather Roundup
Issued by NWS

Home | Current Version | Previous Version | Text Only | Print | Product List | Glossary Off
Versions: 1 2 3 4 5 6 7 8 9 10 11 12 13 14 15 16 17 18 19 20 21 22 23 24 25 26 27 28 29 30 31 32 33 34 35 36 37 38 39 40 41 42 43 44 45 46 47 48 49 50

000
ASUS43 KTOP 251508
RWRKS

WEATHER ROUNDUP FOR KANSAS
NATIONAL WEATHER SERVICE GOODLAND KS
1000 AM CDT MON JUL 25 2016

NOTE:  "FAIR" INDICATES FEW OR NO CLOUDS BELOW 12,000 FEET WITH NO
SIGNIFICANT WEATHER AND/OR OBSTRUCTIONS TO VISIBILITY.

KSZ001>006-013>018-027>032-041>047-251600-
NORTHWEST KANSAS

CITY           SKY/WX    TMP DP  RH WIND       PRES   REMARKS
GOODLAND       SUNNY     72  61  68 E5        30.20R
HAYS           CLOUDY    70  61  73 CALM      30.16R
HILL CITY      PTSUNNY   72  66  81 E10       30.18R
RUSSELL        CLOUDY    70  69  97 E14       30.12R
$$

KSZ061>065-074>080-084>089-251600-
SOUTHWEST KANSAS

CITY           SKY/WX    TMP DP  RH WIND       PRES   REMARKS
DODGE CITY     CLOUDY    71  67  87 NE14      30.16R
ELKHART          N/A     72  65  79 NW6         N/A
GARDEN CITY    PTSUNNY   71  65  81 NE13      30.17R
GREAT BEND     CLOUDY    72  63  73 NE3       30.15R
LIBERAL        PTSUNNY   72  64  78 NW7       30.18R
PRATT          CLOUDY    69  67  91 NE10      30.14R
$$

KSZ066>073-081>083-090>101-251600-
SOUTHEAST KANSAS

CITY           SKY/WX    TMP DP  RH WIND       PRES   REMARKS
CHANUTE        RAIN      72  70  93 NW10      30.14R FOG
COFFEYVILLE    CLOUDY    72  69  90 NE13      30.08F
HUTCHINSON     PTSUNNY   73  68  84 E7        30.11R
MEDICINE LODGE   N/A     76  69  79 NE3       30.10R
NEWTON         CLOUDY    70  67  90 E13G21    30.07F
PARSONS          N/A    N/A N/A N/A MISG      30.11S
WICHITA INTL   CLOUDY    74  68  81 E12       30.06R
WICHITA JABRA  CLOUDY    72  69  90 E17G24    30.05R
WINFIELD       CLOUDY    74  69  85 E10G16    30.06R
$$

KSZ007>012-019>026-033>040-048>060-102>105-251600-
NORTHEAST KANSAS

CITY           SKY/WX    TMP DP  RH WIND       PRES   REMARKS
CONCORDIA      CLOUDY    70  67  90 NE6       30.13F
EMPORIA        LGT RAIN  71  70  96 SE3       30.13S FOG
LAWRENCE       CLOUDY    74  69  85 CALM      30.11R
MANHATTAN      LGT RAIN  71  67  87 E3        30.13S
MARYSVILLE     CLOUDY    70  68  94 N3        30.14S
OLATHE IND     CLOUDY    75  70  84 CALM      30.12R
OLATHE EXE     CLOUDY    75  69  81 CALM      30.11R
SALINA         CLOUDY    72  69  90 NE8       30.07F
TOPEKA BILLARD CLOUDY    73  70  90 SW3       30.11R
TOPEKA FORBES  LGT RAIN  73  70  90 W5        30.12R
$$




USA.gov is the U.S. government's official web portal to all federal, state and local government web resources and services.